User: anonymous
Location: Melbourne
(37.8170°S, 144.9670°E)
Time: 06:08:53
(UTC+10:00)
Language:

Explorer 11/Cluster Stage 4 - Orbit

View from above orbital plane
View from above orbital plane
View from above satellite
View from above satellite

Ground track
Ground track

The orbit data is extracted from the following two-line orbital elements,

1 00107U 61013A   14241.38564565  .00001262  00000-0  15377-3 0  1183
2 00107 028.7906 251.6475 0562254 183.7762 313.7569 14.05089759666875
Epoch (UTC): 29 August 2014 09:15:19
Eccentricity: 0.0562254
inclination: 28.7906°
perigee height: 468 km
apogee height: 1284 km
right ascension of ascending node: 251.6475°
argument of perigee: 183.7762°
revolutions per day: 14.05089759
mean anomaly at epoch: 313.7569°
orbit number at epoch: 66687

The dashed part of the orbit path shows where the satellite is in the earth's shadow,  

DLR